Orbital Elements at Epoch 2459200.5 (2020-Dec-17.0) TDB
Reference: JPL 17 (heliocentric ecliptic J2000)
Element | Value | Uncertainty (1-sigma) | Units |
e | .05994677137712805 | 5.0231e-08 | |
a | 3.083593721451435 | 2.8701e-08 | au |
q | 2.898742233611638 | 1.582e-07 | au |
i | 1.991024044738886 | 6.4992e-06 | deg |
node | 134.2840247989476 | 0.00021017 | deg |
peri | 120.3915522212973 | 0.00022211 | deg |
M | 326.8750279069106 | 7.3705e-05 | deg |
tp | 2459382.485663438869 (2021-Jun-16.98566344) | 0.00040531 | TDB |
period | 1977.80812173607 5.41 | 2.7613e-05 7.56e-08 | d yr |
n | .1820196792821343 | 2.5413e-09 | deg/d |
Q | 3.268445209291232 | 3.0422e-08 | au |
|
| | Orbit Determination Parameters
Additional Information
|